User: anonymous   Login
Location: Unspecified
(0.0000°N, 0.0000°E)
Time: 00:00:52
(UTC+02:00)
Language:

BREEZE-M DEB (TANK) - Orbit

View from above orbital plane
View from above orbital plane
View from above satellite
View from above satellite

Ground track
Ground track

The orbit data is extracted from the following two-line orbital elements,

1 33374U 08044B   15090.12771538  .00002775  00000-0  86065-3 0  9994
2 33374 049.4215 130.3538 5447283 320.0766 021.9561 04.85309410114641
Epoch (UTC): 31 March 2015 03:03:54
Eccentricity: 0.5447283
inclination: 49.4215°
perigee height: 331 km
apogee height: 16385 km
right ascension of ascending node: 130.3538°
argument of perigee: 320.0766°
revolutions per day: 4.85309410
mean anomaly at epoch: 21.9561°
orbit number at epoch: 11464

The dashed part of the orbit path shows where the satellite is in the earth's shadow,  

DLR